sat.trackr.live / text

‹ back to catalog

STARLINK-37012

NORAD 68221 · 2026-053Q

PAYLOAD ACTIVE UNKNOWN

§ Identity

Operator
Country
US
Launch date
2026-03-17
Launch site
AFWTR
Launch vehicle
Mass (kg)
RCS (m²)

Purposes: comms

External: N2YO · Heavens-Above · Gunter

§ Orbital elements

Epoch: 2026-05-25T03:03:07.603776Z

Period
93.91 min
Inclination
97.2892°
Eccentricity
0.0001262
Mean motion
15.33455193 rev/d
Perigee alt
464.6 km
Apogee alt
466.4 km
Semi-major
6,843.6 km
B*
4.6259e-4
RAAN
20.5969°
Arg perigee
94.9588°
Mean anomaly
265.1799°
Rev number
1,193

§ Raw data

STARLINK-370121 68221U 26053Q   26145.12717134  .00014893  00000+0  46259-3 0  99922 68221  97.2892  20.5969 0001262  94.9588 265.1799 15.33455193 11935

JSON: /api/v1/satellites/68221 · /tle

For live sub-satellite position, see the globe view (requires WebGL).

§ Visibility from observer

Set your observer location to see the next 7 days of passes ≥ 10°. The values pass through the URL so the page stays shareable.

No JS? Fill the form by hand. The geolocation button needs JavaScript.